Regional Weather Roundup
Issued by NWS

Home | Current Version | Previous Version | Text Only | Print | Product List | Glossary On
Versions: 1 2 3 4 5 6 7 8 9 10 11 12 13 14 15 16 17 18 19 20 21 22 23 24 25 26 27
000
ASUS45 KCYS 202210
RWRWY

WYOMING REGIONAL WEATHER ROUNDUP
NATIONAL WEATHER SERVICE CHEYENNE WY
400 PM MDT FRI APR 20 2018

NOTE:  "FAIR" INDICATES FEW OR NO CLOUDS BELOW 12,000 FEET
WITH NO SIGNIFICANT WEATHER AND/OR OBSTRUCTIONS TO VISIBILITY.

WYZ001-202300-
YELLOWSTONE NATIONAL PARK

CITY           SKY/WX    TMP DP  RH WIND       PRES   REMARKS
LK YELLOWSTONE   N/A     48  19  31 VRB6      30.11S
W YELLOWSTONE  NOT AVBL

$$
WYZ002>013-054>058-071-098>099-202300-
NORTHERN WYOMING

CITY           SKY/WX    TMP DP  RH WIND       PRES   REMARKS
JACKSON        FAIR      60  20  21 N17       30.00S
CODY           FAIR      60  31  33 N24G33    30.02S
GREYBULL       FAIR      67  36  31 NW16      29.93F
WORLAND        FAIR      64  35  34 N6        29.95S
SHERIDAN       FAIR      62  35  36 NE12      30.05S
BUFFALO        CLOUDY    53  31  42 E9        30.07S
GILLETTE       CLOUDY    50  32  50 CALM      30.07S
HULETT         MOCLDY    54  32  43 CALM      30.08F
NEWCASTLE      MOCLDY    45  34  65 E16G25    30.11S

$$
WYZ014>020-022>026-101>103-202300-
CENTRAL WYOMING

CITY           SKY/WX    TMP DP  RH WIND       PRES   REMARKS
BIG PINEY      PTSUNNY   60  20  21 E13G20    29.96R
PINEDALE       FAIR      59  23  25 NE24      29.97S
DUBOIS         CLOUDY    54  21  28 SE16G25   29.99S
LANDER         CLOUDY    58  30  34 NE16      29.96S
RIVERTON       PTSUNNY   58  31  35 E20G25    29.97S
CASPER         CLOUDY    48  31  51 NE18G29   30.00S
DOUGLAS        CLOUDY    45  33  63 SE14      30.03S

$$
WYZ021-027>030-104>119-202300-
SOUTHERN WYOMING

CITY           SKY/WX    TMP DP  RH WIND       PRES   REMARKS
EVANSTON       CLOUDY    51  31  46 NW12      30.02F
KEMMERER       FAIR      54  30  40 W14G25    29.99F
FORT BRIDGER   MOCLDY    50  34  54 SW9       30.04S
ROCK SPRINGS   CLOUDY    49  25  39 NE22G31   29.97R
DIXON          CLOUDY    49  30  47 N21G26    29.91S
RAWLINS        CLOUDY    43  30  60 N23       29.96R
SARATOGA       CLOUDY    48  27  43 NE18G28   29.90R
LARAMIE        LGT RAIN  36  33  89 CALM      29.95R
CHEYENNE       CLOUDY    36  34  92 E17       29.98R WCI  26
TORRINGTON     CLOUDY    40  34  79 SE23G30   30.06R WCI  30
PINE BLUFFS    CLOUDY    36  32  87 MISG      30.01R

$$




USA.gov is the U.S. government's official web portal to all federal, state and local government web resources and services.